Time,TemperatureF,DewpointF,PressureIn,WindDirection,WindDirectionDegrees,WindSpeedMPH,WindSpeedGustMPH,Humidity,HourlyPrecipIn,Conditions,Clouds,dailyrainin,SoftwareType,DateUTC
2013-07-02 00:10:00,69.4,48.3,30.10,SW,223,6.0,6.0,47,0.00,CLR,,0.00,WeatherDisplay:10.37,2013-07-02 04:10:00,
2013-07-02 00:20:00,69.4,48.3,30.10,SSW,205,2.0,7.0,47,0.00,CLR,,0.00,WeatherDisplay:10.37,2013-07-02 04:20:00,
2013-07-02 00:30:00,69.4,48.3,30.10,SW,218,5.0,6.0,47,0.00,CLR,,0.00,WeatherDisplay:10.37,2013-07-02 04:30:00,
2013-07-02 00:40:00,69.4,47.8,30.10,SSW,212,6.0,6.0,46,0.00,CLR,,0.00,WeatherDisplay:10.37,2013-07-02 04:40:00,
2013-07-02 00:50:00,69.4,47.8,30.10,SSW,207,3.0,6.0,46,0.00,CLR,,0.00,WeatherDisplay:10.37,2013-07-02 04:50:00,
2013-07-02 01:00:00,69.3,47.6,30.10,SSW,203,7.0,8.0,46,0.00,CLR,,0.00,WeatherDisplay:10.37,2013-07-02 05:00:00,
2013-07-02 01:10:00,69.4,47.8,30.10,SSW,208,3.0,8.0,46,0.00,CLR,,0.00,WeatherDisplay:10.37,2013-07-02 05:10:00,
2013-07-02 01:20:00,69.6,47.9,30.10,SW,223,3.0,7.0,46,0.00,CLR,,0.00,WeatherDisplay:10.37,2013-07-02 05:20:00,
2013-07-02 01:30:00,69.6,47.9,30.10,SSW,207,2.0,5.0,46,0.00,CLR,,0.00,WeatherDisplay:10.37,2013-07-02 05:30:00,
2013-07-02 01:40:00,69.8,48.1,30.10,SSW,212,2.0,5.0,46,0.00,CLR,,0.00,WeatherDisplay:10.37,2013-07-02 05:40:00,
2013-07-02 01:50:00,69.8,48.1,30.10,SSW,213,2.0,3.0,46,0.00,CLR,,0.00,WeatherDisplay:10.37,2013-07-02 05:50:00,
2013-07-02 02:00:00,69.8,48.1,30.10,SW,223,2.0,6.0,46,0.00,CLR,,0.00,WeatherDisplay:10.37,2013-07-02 06:00:00,
2013-07-02 02:10:00,70.0,48.2,30.10,SW,217,3.0,8.0,46,0.00,CLR,,0.00,WeatherDisplay:10.37,2013-07-02 06:10:00,
2013-07-02 02:20:00,70.2,48.4,30.10,SW,224,8.0,9.0,46,0.00,CLR,,0.00,WeatherDisplay:10.37,2013-07-02 06:20:00,
2013-07-02 02:30:00,70.3,48.0,30.10,SSW,208,3.0,5.0,45,0.00,CLR,,0.00,WeatherDisplay:10.37,2013-07-02 06:30:00,
2013-07-02 02:40:00,70.3,48.0,30.10,SSW,208,6.0,6.0,45,0.00,CLR,,0.00,WeatherDisplay:10.37,2013-07-02 06:40:00,
2013-07-02 02:50:00,70.5,48.1,30.08,SSW,195,3.0,9.0,45,0.00,CLR,,0.00,WeatherDisplay:10.37,2013-07-02 06:50:00,
2013-07-02 03:00:00,70.9,48.5,30.10,SSW,205,6.0,6.0,45,0.00,CLR,,0.00,WeatherDisplay:10.37,2013-07-02 07:00:00,
2013-07-02 03:10:00,70.7,48.3,30.10,SW,214,6.0,10.0,45,0.00,RA,,0.01,WeatherDisplay:10.37,2013-07-02 07:10:00,
2013-07-02 03:20:00,70.9,48.5,30.10,SSW,210,8.0,9.0,45,0.00,CLR,,0.01,WeatherDisplay:10.37,2013-07-02 07:20:00,
2013-07-02 03:30:00,70.8,48.4,30.10,SSW,198,7.0,9.0,45,0.00,CLR,,0.01,WeatherDisplay:10.37,2013-07-02 07:30:00,
2013-07-02 03:40:00,70.5,48.1,30.10,SSW,194,3.0,6.0,45,0.00,CLR,,0.01,WeatherDisplay:10.37,2013-07-02 07:40:00,
2013-07-02 03:50:00,70.3,48.0,30.10,SSW,196,3.0,7.0,45,0.00,CLR,,0.01,WeatherDisplay:10.37,2013-07-02 07:50:00,
2013-07-02 04:00:00,70.3,48.0,30.10,SSW,212,3.0,5.0,45,0.00,CLR,,0.01,WeatherDisplay:10.37,2013-07-02 08:00:00,
2013-07-02 04:10:00,70.3,48.0,30.11,SSW,195,2.0,5.0,45,0.00,CLR,,0.01,WeatherDisplay:10.37,2013-07-02 08:10:00,
2013-07-02 04:20:00,70.3,48.0,30.11,SSW,205,5.0,6.0,45,0.00,CLR,,0.01,WeatherDisplay:10.37,2013-07-02 08:20:00,
2013-07-02 04:30:00,70.2,47.8,30.11,SSW,206,3.0,5.0,45,0.00,CLR,,0.01,WeatherDisplay:10.37,2013-07-02 08:30:00,
2013-07-02 04:40:00,70.2,47.8,30.11,SSW,213,3.0,5.0,45,0.00,CLR,,0.01,WeatherDisplay:10.37,2013-07-02 08:40:00,
2013-07-02 04:50:00,70.2,47.8,30.11,SSW,204,5.0,6.0,45,0.00,CLR,,0.01,WeatherDisplay:10.37,2013-07-02 08:50:00,
2013-07-02 05:00:00,70.3,48.0,30.12,SW,222,6.0,6.0,45,0.00,RA,,0.03,WeatherDisplay:10.37,2013-07-02 09:00:00,
2013-07-02 05:10:00,70.3,48.0,30.12,SW,219,3.0,7.0,45,0.00,RA,,0.05,WeatherDisplay:10.37,2013-07-02 09:10:00,
2013-07-02 05:20:00,70.9,48.5,30.12,SSW,202,5.0,6.0,45,0.00,RA,,0.13,WeatherDisplay:10.37,2013-07-02 09:20:00,
2013-07-02 05:30:00,71.2,48.2,30.13,SW,234,5.0,6.0,44,0.00,CLR,,0.13,WeatherDisplay:10.37,2013-07-02 09:30:00,
2013-07-02 05:40:00,71.4,48.4,30.13,SSW,201,5.0,9.0,44,0.00,CLR,,0.13,WeatherDisplay:10.37,2013-07-02 09:40:00,
2013-07-02 05:50:00,71.1,48.0,30.13,SW,214,3.0,5.0,44,0.00,CLR,,0.13,WeatherDisplay:10.37,2013-07-02 09:50:00,
2013-07-02 06:00:00,70.8,47.8,30.14,SSW,208,2.0,7.0,44,0.00,CLR,,0.13,WeatherDisplay:10.37,2013-07-02 10:00:00,
2013-07-02 06:10:00,70.7,47.7,30.14,South,189,5.0,5.0,44,0.00,CLR,,0.13,WeatherDisplay:10.37,2013-07-02 10:10:00,
2013-07-02 06:20:00,70.7,47.7,30.14,SW,230,5.0,6.0,44,0.00,RA,,0.14,WeatherDisplay:10.37,2013-07-02 10:20:00,
2013-07-02 06:30:00,70.8,47.8,30.14,SSW,209,2.0,6.0,44,0.00,CLR,,0.14,WeatherDisplay:10.37,2013-07-02 10:30:00,
2013-07-02 06:40:00,70.7,47.7,30.15,SW,218,3.0,5.0,44,0.00,CLR,,0.14,WeatherDisplay:10.37,2013-07-02 10:40:00,
2013-07-02 06:50:00,70.9,47.9,30.15,SSW,205,3.0,5.0,44,0.00,CLR,,0.14,WeatherDisplay:10.37,2013-07-02 10:50:00,
2013-07-02 07:00:00,70.9,47.9,30.15,SSW,205,3.0,7.0,44,0.00,CLR,,0.14,WeatherDisplay:10.37,2013-07-02 11:00:00,
2013-07-02 07:10:00,70.9,47.9,30.15,SW,234,2.0,5.0,44,0.00,CLR,,0.14,WeatherDisplay:10.37,2013-07-02 11:10:00,
2013-07-02 07:20:00,70.7,47.7,30.15,SSW,211,2.0,4.0,44,0.00,CLR,,0.14,WeatherDisplay:10.37,2013-07-02 11:20:00,
2013-07-02 07:30:00,70.7,47.7,30.16,SW,231,5.0,8.0,44,0.00,CLR,,0.14,WeatherDisplay:10.37,2013-07-02 11:30:00,
2013-07-02 07:40:00,70.9,47.9,30.15,SSW,200,6.0,7.0,44,0.00,CLR,,0.14,WeatherDisplay:10.37,2013-07-02 11:40:00,
2013-07-02 07:50:00,71.5,48.4,30.15,SSW,210,3.0,8.0,44,0.00,CLR,,0.14,WeatherDisplay:10.37,2013-07-02 11:50:00,
2013-07-02 08:00:00,71.8,48.7,30.15,SW,216,5.0,5.0,44,0.00,CLR,,0.14,WeatherDisplay:10.37,2013-07-02 12:00:00,
2013-07-02 08:10:00,71.6,48.5,30.15,SSW,208,2.0,7.0,44,0.00,CLR,,0.14,WeatherDisplay:10.37,2013-07-02 12:10:00,
2013-07-02 08:20:00,71.6,47.9,30.15,SW,218,6.0,7.0,43,0.00,CLR,,0.14,WeatherDisplay:10.37,2013-07-02 12:20:00,
2013-07-02 08:30:00,71.6,47.9,30.15,SSW,203,2.0,7.0,43,0.00,CLR,,0.14,WeatherDisplay:10.37,2013-07-02 12:30:00,
2013-07-02 08:40:00,72.0,48.2,30.15,SSW,200,2.0,5.0,43,0.00,CLR,,0.14,WeatherDisplay:10.37,2013-07-02 12:40:00,
2013-07-02 08:50:00,72.0,48.2,30.15,SSW,210,3.0,6.0,43,0.00,CLR,,0.14,WeatherDisplay:10.37,2013-07-02 12:50:00,
2013-07-02 09:00:00,71.6,47.9,30.15,SW,214,6.0,6.0,43,0.00,CLR,,0.14,WeatherDisplay:10.37,2013-07-02 13:00:00,
2013-07-02 09:10:00,71.6,47.9,30.15,SW,221,5.0,8.0,43,0.00,CLR,,0.14,WeatherDisplay:10.37,2013-07-02 13:10:00,
2013-07-02 09:20:00,71.8,48.1,30.15,SSW,206,2.0,6.0,43,0.00,CLR,,0.14,WeatherDisplay:10.37,2013-07-02 13:20:00,
2013-07-02 09:30:00,72.0,47.6,30.15,SSW,201,3.0,8.0,42,0.00,CLR,,0.14,WeatherDisplay:10.37,2013-07-02 13:30:00,
2013-07-02 09:40:00,72.5,48.1,30.15,SSW,208,2.0,7.0,42,0.00,CLR,,0.14,WeatherDisplay:10.37,2013-07-02 13:40:00,
2013-07-02 09:50:00,72.9,48.5,30.15,SSW,205,5.0,7.0,42,0.00,CLR,,0.14,WeatherDisplay:10.37,2013-07-02 13:50:00,
2013-07-02 10:00:00,72.9,48.4,30.15,SW,224,2.0,8.0,42,0.00,CLR,,0.14,WeatherDisplay:10.37,2013-07-02 14:00:00,
2013-07-02 10:10:00,73.2,48.7,30.15,SSW,207,7.0,7.0,42,0.00,CLR,,0.14,WeatherDisplay:10.37,2013-07-02 14:10:00,
2013-07-02 10:20:00,73.7,49.2,30.15,SSW,212,8.0,9.0,42,0.00,CLR,,0.14,WeatherDisplay:10.37,2013-07-02 14:20:00,
2013-07-02 10:30:00,74.3,49.7,30.15,SW,217,5.0,8.0,42,0.00,CLR,,0.14,WeatherDisplay:10.37,2013-07-02 14:30:00,
2013-07-02 10:40:00,74.5,50.5,30.15,SW,215,5.0,6.0,43,0.00,CLR,,0.14,WeatherDisplay:10.37,2013-07-02 14:40:00,
2013-07-02 10:50:00,74.9,52.1,30.15,SW,214,7.0,9.0,45,0.00,CLR,,0.14,WeatherDisplay:10.37,2013-07-02 14:50:00,
2013-07-02 11:00:00,75.6,53.9,30.15,SSW,206,6.0,7.0,47,0.00,CLR,,0.14,WeatherDisplay:10.37,2013-07-02 15:00:00,
2013-07-02 11:10:00,77.2,57.1,30.15,SW,217,8.0,9.0,50,0.00,CLR,,0.14,WeatherDisplay:10.37,2013-07-02 15:10:00,
2013-07-02 11:20:00,77.7,58.1,30.15,SSW,210,8.0,9.0,51,0.00,CLR,,0.14,WeatherDisplay:10.37,2013-07-02 15:20:00,
2013-07-02 11:30:00,78.1,59.0,30.15,SSW,212,7.0,8.0,52,0.00,CLR,,0.14,WeatherDisplay:10.37,2013-07-02 15:30:00,
2013-07-02 11:40:00,78.4,60.4,30.15,WSW,253,8.0,10.0,54,0.00,CLR,,0.14,WeatherDisplay:10.37,2013-07-02 15:40:00,
2013-07-02 11:50:00,78.4,60.9,30.15,SSW,209,6.0,10.0,55,0.00,CLR,,0.14,WeatherDisplay:10.37,2013-07-02 15:50:00,
2013-07-02 12:00:00,78.6,60.6,30.15,SSW,210,2.0,6.0,54,0.00,CLR,,0.14,WeatherDisplay:10.37,2013-07-02 16:00:00,
2013-07-02 12:10:00,77.5,60.6,30.15,SW,219,3.0,9.0,56,0.00,CLR,,0.14,WeatherDisplay:10.37,2013-07-02 16:10:00,
2013-07-02 12:20:00,76.6,59.3,30.15,South,191,8.0,8.0,55,0.00,CLR,,0.14,WeatherDisplay:10.37,2013-07-02 16:20:00,
2013-07-02 12:30:00,76.5,58.6,30.15,SSW,209,6.0,9.0,54,0.00,CLR,,0.14,WeatherDisplay:10.37,2013-07-02 16:30:00,
2013-07-02 12:40:00,76.6,59.3,30.15,SSW,195,7.0,9.0,55,0.00,CLR,,0.14,WeatherDisplay:10.37,2013-07-02 16:40:00,
2013-07-02 12:50:00,77.0,59.1,30.15,South,182,7.0,8.0,54,0.00,CLR,,0.14,WeatherDisplay:10.37,2013-07-02 16:50:00,
2013-07-02 13:00:00,77.7,59.7,30.15,SW,218,3.0,9.0,54,0.00,CLR,,0.14,WeatherDisplay:10.37,2013-07-02 17:00:00,
2013-07-02 13:10:00,78.8,61.3,30.15,SW,219,3.0,7.0,55,0.00,CLR,,0.14,WeatherDisplay:10.37,2013-07-02 17:10:00,
2013-07-02 13:20:00,78.4,61.4,30.16,SSW,211,6.0,10.0,56,0.00,CLR,,0.14,WeatherDisplay:10.37,2013-07-02 17:20:00,
2013-07-02 13:30:00,77.9,60.4,30.15,South,183,6.0,7.0,55,0.00,CLR,,0.14,WeatherDisplay:10.37,2013-07-02 17:30:00,
2013-07-02 13:40:00,78.1,61.1,30.15,SSW,209,3.0,8.0,56,0.00,CLR,,0.14,WeatherDisplay:10.37,2013-07-02 17:40:00,
2013-07-02 13:50:00,77.3,60.4,30.15,SSW,201,5.0,9.0,56,0.00,CLR,,0.14,WeatherDisplay:10.37,2013-07-02 17:50:00,
2013-07-02 14:00:00,76.6,59.3,30.16,SW,225,5.0,10.0,55,0.00,CLR,,0.14,WeatherDisplay:10.37,2013-07-02 18:00:00,
2013-07-02 14:10:00,77.0,59.6,30.16,SW,218,7.0,9.0,55,0.00,CLR,,0.14,WeatherDisplay:10.37,2013-07-02 18:10:00,
2013-07-02 14:20:00,77.4,59.4,30.15,SSW,203,7.0,10.0,54,0.00,CLR,,0.14,WeatherDisplay:10.37,2013-07-02 18:20:00,
2013-07-02 14:30:00,77.4,59.9,30.15,South,179,7.0,10.0,55,0.00,CLR,,0.14,WeatherDisplay:10.37,2013-07-02 18:30:00,
2013-07-02 14:40:00,77.4,59.9,30.15,SW,215,3.0,7.0,55,0.00,CLR,,0.14,WeatherDisplay:10.37,2013-07-02 18:40:00,
2013-07-02 14:50:00,77.1,59.7,30.15,SW,227,6.0,7.0,55,0.00,CLR,,0.14,WeatherDisplay:10.37,2013-07-02 18:50:00,
2013-07-02 15:00:00,76.6,58.7,30.15,SW,219,6.0,7.0,54,0.00,CLR,,0.14,WeatherDisplay:10.37,2013-07-02 19:00:00,
2013-07-02 15:10:00,76.6,58.7,30.15,WSW,239,5.0,5.0,54,0.00,CLR,,0.14,WeatherDisplay:10.37,2013-07-02 19:10:00,
2013-07-02 15:20:00,77.2,59.2,30.14,WSW,237,5.0,7.0,54,0.00,CLR,,0.14,WeatherDisplay:10.37,2013-07-02 19:20:00,
2013-07-02 15:30:00,77.7,59.7,30.14,SSW,204,5.0,6.0,54,0.00,CLR,,0.14,WeatherDisplay:10.37,2013-07-02 19:30:00,
2013-07-02 15:40:00,77.1,59.7,30.14,South,191,3.0,6.0,55,0.00,CLR,,0.14,WeatherDisplay:10.37,2013-07-02 19:40:00,
2013-07-02 15:50:00,75.9,58.1,30.13,SW,217,5.0,7.0,54,0.00,CLR,,0.14,WeatherDisplay:10.37,2013-07-02 19:50:00,
2013-07-02 16:00:00,75.2,57.4,30.13,SSW,193,5.0,6.0,54,0.00,CLR,,0.14,WeatherDisplay:10.37,2013-07-02 20:00:00,
2013-07-02 16:10:00,74.6,56.4,30.13,SSW,206,3.0,6.0,53,0.00,CLR,,0.14,WeatherDisplay:10.37,2013-07-02 20:10:00,
2013-07-02 16:20:00,74.3,56.0,30.13,SW,222,3.0,6.0,53,0.00,CLR,,0.14,WeatherDisplay:10.37,2013-07-02 20:20:00,
2013-07-02 16:30:00,73.9,55.7,30.13,SW,217,5.0,6.0,53,0.00,CLR,,0.14,WeatherDisplay:10.37,2013-07-02 20:30:00,
2013-07-02 16:40:00,73.8,55.0,30.13,SSW,198,5.0,6.0,52,0.00,CLR,,0.14,WeatherDisplay:10.37,2013-07-02 20:40:00,
2013-07-02 16:50:00,73.6,54.9,30.13,SW,215,2.0,7.0,52,0.00,CLR,,0.14,WeatherDisplay:10.37,2013-07-02 20:50:00,
2013-07-02 17:00:00,73.8,54.5,30.13,SSW,196,6.0,6.0,51,0.00,CLR,,0.14,WeatherDisplay:10.37,2013-07-02 21:00:00,
2013-07-02 17:10:00,73.8,54.5,30.13,SW,220,2.0,9.0,51,0.00,CLR,,0.14,WeatherDisplay:10.37,2013-07-02 21:10:00,
2013-07-02 17:20:00,73.4,54.2,30.14,WSW,237,5.0,7.0,51,0.00,CLR,,0.14,WeatherDisplay:10.37,2013-07-02 21:20:00,
2013-07-02 17:30:00,73.0,53.8,30.14,SSW,212,3.0,7.0,51,0.00,CLR,,0.14,WeatherDisplay:10.37,2013-07-02 21:30:00,
2013-07-02 17:40:00,72.9,53.1,30.14,SSW,205,5.0,6.0,50,0.00,CLR,,0.14,WeatherDisplay:10.37,2013-07-02 21:40:00,
2013-07-02 17:50:00,72.5,52.8,30.14,SSW,197,3.0,7.0,50,0.00,CLR,,0.14,WeatherDisplay:10.37,2013-07-02 21:50:00,
2013-07-02 18:00:00,72.6,52.4,30.15,SW,214,5.0,7.0,49,0.00,CLR,,0.14,WeatherDisplay:10.37,2013-07-02 22:00:00,
2013-07-02 18:10:00,72.7,52.4,30.15,SW,214,3.0,6.0,49,0.00,CLR,,0.14,WeatherDisplay:10.37,2013-07-02 22:10:00,
2013-07-02 18:20:00,72.3,52.1,30.15,SSW,205,2.0,9.0,49,0.00,CLR,,0.14,WeatherDisplay:10.37,2013-07-02 22:20:00,
2013-07-02 18:30:00,72.5,52.2,30.15,SSW,213,2.0,8.0,49,0.00,CLR,,0.14,WeatherDisplay:10.37,2013-07-02 22:30:00,
2013-07-02 18:40:00,72.7,52.4,30.15,SSW,195,3.0,7.0,49,0.00,CLR,,0.14,WeatherDisplay:10.37,2013-07-02 22:40:00,
2013-07-02 18:50:00,72.9,52.6,30.16,SW,214,5.0,7.0,49,0.00,CLR,,0.14,WeatherDisplay:10.37,2013-07-02 22:50:00,
2013-07-02 19:00:00,72.6,52.4,30.16,SW,215,5.0,7.0,49,0.00,CLR,,0.14,WeatherDisplay:10.37,2013-07-02 23:00:00,
2013-07-02 19:10:00,72.3,52.1,30.16,SW,224,2.0,7.0,49,0.00,CLR,,0.14,WeatherDisplay:10.37,2013-07-02 23:10:00,
2013-07-02 19:20:00,72.1,51.9,30.17,SW,228,5.0,7.0,49,0.00,CLR,,0.14,WeatherDisplay:10.37,2013-07-02 23:20:00,
2013-07-02 19:30:00,71.8,51.6,30.17,SSW,199,3.0,5.0,49,0.00,CLR,,0.14,WeatherDisplay:10.37,2013-07-02 23:30:00,
2013-07-02 19:40:00,71.7,51.6,30.17,SSW,207,3.0,5.0,49,0.00,CLR,,0.14,WeatherDisplay:10.37,2013-07-02 23:40:00,
2013-07-02 19:50:00,71.6,50.9,30.17,SSW,203,2.0,6.0,48,0.00,CLR,,0.14,WeatherDisplay:10.37,2013-07-02 23:50:00,
2013-07-02 20:00:00,71.6,50.8,30.17,SW,218,3.0,6.0,48,0.00,CLR,,0.14,WeatherDisplay:10.37,2013-07-03 00:00:00,
2013-07-02 20:10:00,71.3,50.6,30.17,SW,220,3.0,8.0,48,0.00,CLR,,0.14,WeatherDisplay:10.37,2013-07-03 00:10:00,
2013-07-02 20:20:00,71.2,50.0,30.18,SW,215,5.0,10.0,47,0.00,CLR,,0.14,WeatherDisplay:10.37,2013-07-03 00:20:00,
2013-07-02 20:30:00,71.2,49.4,30.18,SW,217,3.0,7.0,46,0.00,CLR,,0.14,WeatherDisplay:10.37,2013-07-03 00:30:00,
2013-07-02 20:40:00,71.2,49.4,30.17,SW,214,2.0,6.0,46,0.00,CLR,,0.14,WeatherDisplay:10.37,2013-07-03 00:40:00,
2013-07-02 20:50:00,71.2,49.4,30.17,SSW,208,3.0,6.0,46,0.00,CLR,,0.14,WeatherDisplay:10.37,2013-07-03 00:50:00,
2013-07-02 21:00:00,71.1,48.6,30.18,SSW,208,5.0,5.0,45,0.00,CLR,,0.14,WeatherDisplay:10.37,2013-07-03 01:00:00,
2013-07-02 21:10:00,71.1,48.6,30.18,SW,225,6.0,6.0,45,0.00,CLR,,0.14,WeatherDisplay:10.37,2013-07-03 01:10:00,
2013-07-02 21:20:00,70.9,48.5,30.18,SSW,207,5.0,6.0,45,0.00,CLR,,0.14,WeatherDisplay:10.37,2013-07-03 01:20:00,
2013-07-02 21:30:00,70.9,48.5,30.18,SSW,212,3.0,6.0,45,0.00,CLR,,0.14,WeatherDisplay:10.37,2013-07-03 01:30:00,
2013-07-02 21:40:00,70.9,48.5,30.19,SW,219,5.0,6.0,45,0.00,CLR,,0.14,WeatherDisplay:10.37,2013-07-03 01:40:00,
2013-07-02 21:50:00,70.9,48.5,30.19,SW,217,2.0,7.0,45,0.00,CLR,,0.14,WeatherDisplay:10.37,2013-07-03 01:50:00,
2013-07-02 22:00:00,70.9,47.9,30.19,SSW,199,2.0,5.0,44,0.00,CLR,,0.14,WeatherDisplay:10.37,2013-07-03 02:00:00,
2013-07-02 22:10:00,70.9,47.9,30.19,SSW,196,3.0,5.0,44,0.00,CLR,,0.14,WeatherDisplay:10.37,2013-07-03 02:10:00,
2013-07-02 22:20:00,70.8,47.8,30.19,SW,223,3.0,5.0,44,0.00,CLR,,0.14,WeatherDisplay:10.37,2013-07-03 02:20:00,
2013-07-02 22:30:00,70.7,47.7,30.19,SSW,203,9.0,9.0,44,0.00,CLR,,0.14,WeatherDisplay:10.37,2013-07-03 02:30:00,
2013-07-02 22:40:00,70.7,47.7,30.19,SSW,209,2.0,9.0,44,0.00,CLR,,0.14,WeatherDisplay:10.37,2013-07-03 02:40:00,
2013-07-02 22:50:00,70.6,47.6,30.19,SSW,212,2.0,6.0,44,0.00,CLR,,0.14,WeatherDisplay:10.37,2013-07-03 02:50:00,
2013-07-02 23:00:00,70.5,47.5,30.18,SSW,210,5.0,5.0,44,0.00,CLR,,0.14,WeatherDisplay:10.37,2013-07-03 03:00:00,
2013-07-02 23:10:00,70.5,47.5,30.18,SSW,206,7.0,7.0,44,0.00,CLR,,0.14,WeatherDisplay:10.37,2013-07-03 03:10:00,
2013-07-02 23:20:00,70.5,47.5,30.18,SSW,209,3.0,7.0,44,0.00,CLR,,0.14,WeatherDisplay:10.37,2013-07-03 03:20:00,
2013-07-02 23:30:00,70.5,46.9,30.18,SSW,204,2.0,8.0,43,0.00,CLR,,0.14,WeatherDisplay:10.37,2013-07-03 03:30:00,
2013-07-02 23:40:00,70.7,47.1,30.18,SW,223,5.0,7.0,43,0.00,CLR,,0.14,WeatherDisplay:10.37,2013-07-03 03:40:00,
2013-07-02 23:50:00,70.7,47.1,30.17,SSW,211,3.0,7.0,43,0.00,CLR,,0.14,WeatherDisplay:10.37,2013-07-03 03:50:00,